TimeCEST,TemperatureF,Dew PointF,Humidity,Sea Level PressureIn,VisibilityMPH,Wind Direction,Wind SpeedMPH,Gust SpeedMPH,PrecipitationIn,Events,Conditions,WindDirDegrees,DateUTC
12:00 AM,41.0,39.2,93,30.15,-9999.0,Calm,Calm,-,N/A,,Clear,0,2013-10-13 22:00:00
12:30 AM,37.4,33.8,87,30.15,-9999.0,SW,3.5,-,N/A,,Clear,220,2013-10-13 22:30:00
1:00 AM,39.2,37.4,93,30.15,-9999.0,SW,3.5,-,N/A,,Clear,220,2013-10-13 23:00:00
1:30 AM,39.2,37.4,93,30.15,6.2,East,1.2,-,N/A,Fog,Shallow Fog,80,2013-10-13 23:30:00
2:00 AM,41,40,96,30.21,7,SE,6.7,,,,Scattered Clouds,140,2013-10-14 00:00:00
2:00 AM,41.0,39.2,93,30.15,-9999.0,SE,5.8,-,N/A,,Clear,130,2013-10-14 00:00:00
2:30 AM,37.4,35.6,93,30.15,5.0,SSE,5.8,-,N/A,,Unknown,160,2013-10-14 00:30:00
3:00 AM,37.4,37.4,100,30.15,4.3,South,5.8,-,N/A,,Unknown,170,2013-10-14 01:00:00
3:30 AM,37.4,35.6,93,30.15,3.1,WSW,6.9,-,N/A,Fog,Mist,250,2013-10-14 01:30:00
4:00 AM,35.6,35.6,100,30.15,3.1,WSW,3.5,-,N/A,Fog,Mist,240,2013-10-14 02:00:00
4:30 AM,35.6,35.6,100,30.15,4.3,Variable,2.3,-,N/A,Fog,Fog,0,2013-10-14 02:30:00
4:49 AM,37.4,35.6,93,30.15,3.7,Calm,Calm,-,N/A,Fog,Shallow Fog,0,2013-10-14 02:49:00
4:53 AM,37.4,35.6,93,30.15,2.8,Calm,Calm,-,N/A,Fog,Partly Cloudy,0,2013-10-14 02:53:00
5:00 AM,37.4,37.4,100,30.15,2.8,Calm,Calm,-,N/A,Fog,Partly Cloudy,0,2013-10-14 03:00:00
5:05 AM,37.4,37.4,100,30.15,2.2,Calm,Calm,-,N/A,Fog,Partly Cloudy,0,2013-10-14 03:05:00
5:10 AM,37.4,37.4,100,30.15,1.1,Variable,1.2,-,N/A,Fog,Partly Cloudy,0,2013-10-14 03:10:00
5:21 AM,37.4,37.4,100,30.15,1.5,Calm,Calm,-,N/A,Fog,Partly Cloudy,0,2013-10-14 03:21:00
5:30 AM,37.4,37.4,100,30.15,1.2,Calm,Calm,-,N/A,Fog,Partly Cloudy,0,2013-10-14 03:30:00
5:45 AM,35.6,33.8,93,30.15,2.5,Variable,2.3,-,N/A,Fog,Scattered Clouds,0,2013-10-14 03:45:00
6:00 AM,33.8,33.8,100,30.15,1.2,Variable,1.2,-,N/A,Fog,Scattered Clouds,0,2013-10-14 04:00:00
6:08 AM,35.6,33.8,93,30.15,0.2,Calm,Calm,-,N/A,,Unknown,0,2013-10-14 04:08:00
6:30 AM,33.8,33.8,100,30.15,0.2,West,2.3,-,N/A,Fog,Fog,270,2013-10-14 04:30:00
6:45 AM,33.8,33.8,100,30.15,0.2,Calm,Calm,-,N/A,Fog,Fog,0,2013-10-14 04:45:00
7:00 AM,33.8,33.8,100,30.15,0.2,WSW,2.3,-,N/A,Fog,Fog,250,2013-10-14 05:00:00
7:16 AM,33.8,32.0,93,30.15,0.2,West,2.3,-,N/A,Fog,Fog,280,2013-10-14 05:16:00
7:30 AM,33.8,32.0,93,30.15,0.2,Variable,1.2,-,N/A,Fog,Fog,0,2013-10-14 05:30:00
7:35 AM,33.8,32.0,93,30.15,0.2,Calm,Calm,-,N/A,Fog,Fog,0,2013-10-14 05:35:00
7:47 AM,33.8,32.0,93,30.15,0.5,Variable,2.3,-,N/A,Fog,Patches of Fog,0,2013-10-14 05:47:00
7:51 AM,33.8,32.0,93,30.15,0.6,Variable,2.3,-,N/A,Fog,Patches of Fog,0,2013-10-14 05:51:00
8:00 AM,33,32,96,30.23,1,West,2.2,,,Fog,Patches of Fog,270,2013-10-14 06:00:00
8:00 AM,33.8,32.0,93,30.15,0.7,Variable,2.3,-,N/A,Fog,Patches of Fog,0,2013-10-14 06:00:00
8:06 AM,33.8,32.0,93,30.15,0.8,Calm,Calm,-,N/A,Fog,Patches of Fog,0,2013-10-14 06:06:00
8:10 AM,33.8,33.8,100,30.15,0.5,Variable,2.3,-,N/A,Fog,Patches of Fog,0,2013-10-14 06:10:00
8:24 AM,33.8,33.8,100,30.15,0.5,Variable,1.2,-,N/A,,Mostly Cloudy,0,2013-10-14 06:24:00
8:30 AM,33.8,33.8,100,30.15,0.6,Variable,2.3,-,N/A,Fog,Patches of Fog,0,2013-10-14 06:30:00
8:35 AM,33.8,33.8,100,30.15,0.7,Variable,2.3,-,N/A,Fog,Patches of Fog,0,2013-10-14 06:35:00
9:00 AM,35.6,35.6,100,30.15,1.6,SW,3.5,-,N/A,Fog,Partly Cloudy,230,2013-10-14 07:00:00
9:07 AM,37.4,37.4,100,30.15,2.5,Variable,2.3,-,N/A,,Mist,0,2013-10-14 07:07:00
9:11 AM,37.4,37.4,100,30.15,3.1,Variable,1.2,-,N/A,,Mist,0,2013-10-14 07:11:00
9:31 AM,42.8,41.0,93,30.15,4.3,NNE,3.5,-,N/A,,Unknown,30,2013-10-14 07:31:00
10:00 AM,44.6,42.8,93,30.15,5.6,East,6.9,-,N/A,,Unknown,100,2013-10-14 08:00:00
10:30 AM,46.4,46.4,100,30.15,-9999.0,East,4.6,-,N/A,,Clear,90,2013-10-14 08:30:00
11:00 AM,50.0,44.6,82,30.15,-9999.0,Variable,2.3,-,N/A,,Clear,0,2013-10-14 09:00:00
11:30 AM,51.8,42.8,71,30.15,-9999.0,SE,3.5,-,N/A,,Clear,140,2013-10-14 09:30:00
12:00 PM,53.6,42.8,67,30.15,-9999.0,ESE,4.6,-,N/A,,Clear,120,2013-10-14 10:00:00
12:30 PM,55.4,44.6,67,30.15,-9999.0,SE,5.8,-,N/A,,Clear,140,2013-10-14 10:30:00
1:00 PM,55.4,44.6,67,30.15,6.2,Variable,3.5,-,N/A,,Partly Cloudy,0,2013-10-14 11:00:00
1:13 PM,50.0,46.4,87,30.15,3.1,NNW,8.1,-,N/A,,Partly Cloudy,340,2013-10-14 11:13:00
1:30 PM,51.8,46.4,82,30.15,3.7,NNW,5.8,-,N/A,,Partly Cloudy,340,2013-10-14 11:30:00
2:00 PM,53,47,74,30.15,4,NNE,6.7,,,,Mist,20,2013-10-14 12:00:00
2:00 PM,53.6,46.4,77,30.12,3.7,NNE,5.8,-,N/A,,Partly Cloudy,20,2013-10-14 12:00:00
2:30 PM,51.8,48.2,88,30.12,3.7,NNE,6.9,-,N/A,,Unknown,20,2013-10-14 12:30:00
3:00 PM,51.8,46.4,82,30.12,3.1,NNE,5.8,-,N/A,,Partly Cloudy,20,2013-10-14 13:00:00
3:30 PM,51.8,46.4,82,30.12,3.7,NNE,5.8,-,N/A,,Unknown,20,2013-10-14 13:30:00
4:00 PM,51.8,46.4,82,30.09,3.1,NNE,6.9,-,N/A,,Mist,30,2013-10-14 14:00:00
4:30 PM,50.0,46.4,87,30.09,3.7,NNE,6.9,-,N/A,,Unknown,20,2013-10-14 14:30:00
4:51 PM,48.2,46.4,93,30.09,2.8,NNW,2.3,-,N/A,,Mist,340,2013-10-14 14:51:00
5:00 PM,48.2,46.4,93,30.09,2.5,NNW,3.5,-,N/A,,Mist,340,2013-10-14 15:00:00
5:30 PM,48.2,46.4,93,30.09,2.5,North,3.5,-,N/A,,Mist,350,2013-10-14 15:30:00
6:00 PM,46.4,44.6,93,30.09,2.2,NNW,2.3,-,N/A,,Mist,340,2013-10-14 16:00:00
6:30 PM,46.4,44.6,93,30.09,2.2,NNW,3.5,-,N/A,,Mist,330,2013-10-14 16:30:00
7:00 PM,44.6,42.8,93,30.09,2.2,NNW,2.3,-,N/A,,Mist,340,2013-10-14 17:00:00
7:30 PM,44.6,42.8,93,30.09,1.7,Variable,1.2,-,N/A,,Mist,0,2013-10-14 17:30:00
8:00 PM,45,44,93,30.14,0,NW,2.2,,,Fog,Patches of Fog,320,2013-10-14 18:00:00
8:00 PM,44.6,44.6,100,30.09,1.6,Variable,1.2,-,N/A,Fog,Partly Cloudy,0,2013-10-14 18:00:00
8:24 PM,44.6,44.6,100,30.09,0.3,SE,2.3,-,N/A,Fog,Partly Cloudy,130,2013-10-14 18:24:00
8:30 PM,44.6,44.6,100,30.09,2.5,East,3.5,-,N/A,Fog,Partly Cloudy,100,2013-10-14 18:30:00
8:40 PM,46.4,44.6,93,30.09,3.1,ESE,5.8,-,N/A,,Mist,120,2013-10-14 18:40:00
9:00 PM,44.6,44.6,100,30.09,3.7,ESE,4.6,-,N/A,,Unknown,110,2013-10-14 19:00:00
9:30 PM,44.6,42.8,93,30.09,2.8,NNW,4.6,-,N/A,,Mist,330,2013-10-14 19:30:00
9:51 PM,42.8,42.8,100,30.09,1.9,Variable,2.3,-,N/A,Fog,Partly Cloudy,0,2013-10-14 19:51:00
10:00 PM,42.8,41.0,93,30.09,1.7,Variable,2.3,-,N/A,Fog,Partly Cloudy,0,2013-10-14 20:00:00
10:30 PM,42.8,41.0,93,30.09,1.2,Variable,2.3,-,N/A,Fog,Partly Cloudy,0,2013-10-14 20:30:00
11:00 PM,42.8,41.0,93,30.06,1.6,Variable,1.2,-,N/A,Fog,Partly Cloudy,0,2013-10-14 21:00:00
11:19 PM,42.8,41.0,93,30.06,-9999.0,Variable,1.2,-,N/A,Fog,Fog,0,2013-10-14 21:19:00
11:30 PM,42.8,41.0,93,30.06,0.2,Calm,Calm,-,N/A,,Partly Cloudy,0,2013-10-14 21:30:00